Weather History for Juliana Airport, Saint Maarten, Saint Maartin

Change the Weather History Date:

Friday, November 29, 2013

  Actual Average Record
Temperature  
Mean Temperature 80 °F -  
Max Temperature 85 °F 82 °F - ()
Min Temperature 76 °F 73 °F - ()
Cooling Degree Days 16    
Growing Degree Days 30 (Base 50)    
Moisture  
Dew Point 70 °F    
Average Humidity 70    
Maximum Humidity 83    
Minimum Humidity 54    
Precipitation  
Precipitation 0.24 in 0.11 in - ()
Sea Level Pressure  
Sea Level Pressure 29.95 in    
Wind  
Wind Speed 11 mph ()    
Max Wind Speed 16 mph    
Max Gust Speed -    
Visibility 6.2 miles    
Events Rain    
T = Trace of Precipitation, MM = Missing Value Source: Averaged Metar Reports

Daily Weather History Graph

Daily Weather History Graph

Search for Another Location

Airport:

Trip Planner

Search our weather history database for the weather conditions in past years. The results will help you decide how hot, cold, wet, or windy it might be!

Date:

Astronomy

Nov. 29, 2013 Rise Set
Actual Time 6:26 AM AST 5:35 PM AST
Civil Twilight 6:03 AM AST 5:58 PM AST
Nautical Twilight 5:36 AM AST 6:25 PM AST
Astronomical Twilight 5:09 AM AST 6:51 PM AST
Moon 2:55 AM AST (11/29) 2:53 PM AST (11/29)
Length of Visible Light 11h 55m
Length of Day
11h 08m
Waning Crescent, 14% of the Moon is Illuminated
Nov 29
Waning Crescent
Dec 2
New
Dec 9
First Quarter
Dec 17
Full
Dec 25
Last Quarter

Hourly Weather History & Observations

Time (AST) Temp. Heat Index Dew Point Humidity Pressure Visibility Wind Dir Wind Speed Gust Speed Precip Events Conditions
12:00 AM 80.6 °F 83.2 °F 68.0 °F 65% 29.98 in 6.2 mi ENE 15.0 mph - N/A   Partly Cloudy
1:00 AM 78.8 °F - 68.0 °F 69% 29.95 in 6.2 mi ENE 11.5 mph - N/A   Partly Cloudy
2:00 AM 80 °F - 68 °F 58% 29.95 in 22 mi ENE 16.1 mph - -   Scattered Clouds
2:00 AM 80.6 °F 83.2 °F 68.0 °F 65% 29.95 in 6.2 mi ENE 16.1 mph - N/A   Partly Cloudy
3:00 AM 78.8 °F - 68.0 °F 69% 29.92 in 6.2 mi ENE 12.7 mph - N/A   Partly Cloudy
4:00 AM 78.8 °F - 69.8 °F 74% 29.92 in 6.2 mi ENE 10.4 mph - N/A   Scattered Clouds
5:00 AM 79 °F - 69 °F 64% 29.94 in 22 mi ENE 12.7 mph - -   Scattered Clouds
5:00 AM 78.8 °F - 69.8 °F 74% 29.92 in 6.2 mi ENE 12.7 mph - N/A   Partly Cloudy
6:00 AM 78.8 °F - 68.0 °F 69% 29.95 in 6.2 mi ENE 12.7 mph - N/A   Partly Cloudy
7:00 AM 78.8 °F - 69.8 °F 74% 29.95 in 6.2 mi ENE 10.4 mph - N/A   Partly Cloudy
8:00 AM 81 °F - 69 °F 60% 29.99 in 31 mi ENE 11.5 mph - -  
8:00 AM 80.6 °F 83.9 °F 69.8 °F 70% 29.98 in 6.2 mi ENE 11.5 mph - N/A   Partly Cloudy
9:00 AM 84.2 °F 88.4 °F 69.8 °F 62% 29.98 in 6.2 mi NE 10.4 mph - N/A   Partly Cloudy
10:00 AM 84.2 °F 89.6 °F 71.6 °F 66% 30.01 in 6.2 mi ENE 11.5 mph - N/A   Scattered Clouds
11:00 AM 84 °F - 70 °F 54% 30.00 in 31 mi ENE 13.8 mph - -   Partly Cloudy
11:00 AM 84.2 °F 88.4 °F 69.8 °F 62% 29.98 in 6.2 mi ENE 13.8 mph - N/A   Partly Cloudy
12:00 PM 84.2 °F 89.6 °F 71.6 °F 66% 29.98 in 6.2 mi NE 11.5 mph - N/A   Scattered Clouds
1:00 PM 84.2 °F 88.4 °F 69.8 °F 62% 29.95 in 6.2 mi ENE 13.8 mph - N/A   Scattered Clouds
2:00 PM 83 °F - 69 °F 54% 29.94 in 8 mi ENE 12.7 mph - -   Mostly Cloudy
2:00 PM 82.4 °F 86.3 °F 69.8 °F 66% 29.92 in 6.2 mi ENE 12.7 mph - N/A Rain Light Rain Showers
3:00 PM 80.6 °F 85.4 °F 73.4 °F 79% 29.92 in 6.2 mi NE 15.0 mph - N/A   Scattered Clouds
3:36 PM 80.6 °F 84.6 °F 71.6 °F 74% 29.92 in 5.6 mi ENE 12.7 mph - N/A Rain Light Rain Showers
4:00 PM 78.8 °F - 73.4 °F 83% 29.92 in 6.2 mi NNE 6.9 mph - N/A Rain Light Rain Showers
4:19 PM 78.8 °F - 73.4 °F 83% 29.92 in 6.2 mi NNE 8.1 mph - N/A Rain Light Rain Showers
5:00 PM 79 °F - 71 °F 70% 29.94 in 12 mi ENE 11.5 mph - - Rain Light Rain Showers
5:00 PM 78.8 °F - 71.6 °F 78% 29.92 in 6.2 mi ENE 12.7 mph - N/A Rain Light Rain Showers
6:00 PM 78.8 °F - 69.8 °F 74% 29.95 in 6.2 mi NE 12.7 mph - N/A   Partly Cloudy
7:00 PM 78.8 °F - 71.6 °F 78% 29.95 in 6.2 mi ENE 13.8 mph - N/A Rain Light Rain Showers
8:00 PM 79 °F - 71 °F 72% 29.97 in 25 mi East 11.5 mph - - Rain Light Rain Showers
8:00 PM 78.8 °F - 71.6 °F 78% 29.95 in 6.2 mi ENE 12.7 mph - N/A   Mostly Cloudy
9:00 PM 78.8 °F - 71.6 °F 78% 29.98 in 6.2 mi ENE 10.4 mph - N/A Rain Light Rain Showers
10:00 PM 78.8 °F - 71.6 °F 78% 29.95 in 6.2 mi NE 11.5 mph - N/A   Mostly Cloudy
11:00 PM 76 °F - 72 °F 83% 29.97 in 3 mi East 12.7 mph - - Rain Light Rain Showers
11:00 PM 77.0 °F - 71.6 °F 83% 29.95 in 3.1 mi East 11.5 mph - N/A Rain Rain Showers